Weather in Sinegorye

Russia / Komi Republic     65°26′53″N   51°58′40″E
temp.,
°C
wind,
m/s
gust,
m/s
humid.,
%
clouds,
%
prec.,
mm/h
press.,
hPa
HPBL,
m
25 june, sat
sat2500:00+10nne267795 0.0 1007257
03:00+8nnw398478 0.0 1007570
06:00+10nnw695963 0.0 10081145
09:00+12nnw6105166 0.0 10101417
12:00+13nnw61046100 0.0 10111762
15:00+14nnw51146100 0.0 10121939
18:00+14nnw6104220 0.0 10121904
21:00+10n49577 0.0 10141338
26 june, sun
sun2600:00+6nnw497788 0.0 1016715
03:00+6n51072100 0.0 10171038
06:00+7n586699 0.0 1018958
09:00+11n474813 0.0 10181259
12:00+16nnw46345 0.0 10171930
15:00+17nnw342999 0.0 10152102
18:00+15wnw4339100 0.0 10131768
21:00+8n3794100 2.0 1013309
27 june, mon
mon2700:00+5nne5894100 1.2 1014868
03:00+3n4991100 1.4 1016993
06:00+4n4985100 0.0 10171247
09:00+5nnw4981100 0.1 10171047
12:00+6n5971100 0.3 10181214
15:00+7nnw5970100 0.4 10191378
18:00+9nnw5115296 0.1 10191596
21:00+7n5115978 0.1 10201174
28 june, tue
tue2800:00+4nnw5126896 0.0 1021823
03:00+4nnw513665 0.0 1022766
06:00+8n6124020 0.0 1023846
09:00+12n6112470 0.0 10231159
12:00+16n7112473 0.0 10231639
15:00+16nne6102278 0.0 10231620
18:00+16n59260 0.0 10231488
21:00+12n494995 0.0 1024602
29 june, wed
wed2900:00+6nw2865100 0.0 1023208
03:00+6nw2857100 0.0 1023271
06:00+10nw3645100 0.0 1021581
09:00+15wnw4635100 0.0 10181125
12:00+11wnw3866100 0.0 1017550
15:00+10nw3993100 0.6 1014734
18:00+13nnw377311 0.1 10131109
21:00+11nne59506 0.1 1014866